Dewpoint
63 59 56 50 46 37 29 25 16 9 5 2 -3 -2 -4 1 7 9 6 15 11 26 34 25 17 22 46 47 49 48 48 43 54 46 47 63 65 64 68 68 69 68 67 66 68 69 70 73 73 72 72 72 73 73 73 73 73 73 73 73 73 73 72 72 72 72 72 72 72 71 71 70 70 70 69 69 69 69 69 69 69 68 68 69 69 70 68 67 68 68 68 69 69 69 68 68 67
49 52 51 48 41 30 24 15 12 13 5 -1 -4 -2 1 12 8 -0 4 11 11 11 15 16 16 20 47 49 54 54 50 55 59 60 64 65 65 65 68 70 71 69 68 67 67 68 68 71 73 73 72 73 73 73 73 73 73 73 73 73 72 72 72 72 72 72 72 72 71 71 71 70 70 70 69 70 71 71 70 69 69 69 69 68 69 68 68 69 69 69 69 69 69 69 70 70 69
43 45 37 40 34 33 22 9 6 7 2 -3 -5 -3 6 -6 -1 5 5 7 10 12 14 14 20 31 40 52 51 52 57 59 59 62 63 65 64 66 69 70 71 69 69 67 67 66 67 70 72 72 72 72 72 72 72 72 72 72 72 72 72 72 72 72 72 72 71 72 71 70 70 70 69 70 70 71 72 72 71 70 70 69 68 68 68 69 70 70 70 70 69 69 69 70 69 69 69
47 45 34 29 20 22 15 6 3 2 -3 -9 -10 -0 3 2 2 4 6 8 11 13 14 17 28 55 46 48 52 55 52 58 60 62 63 64 64 67 69 71 71 68 67 67 67 66 68 72 72 72 71 71 72 72 72 72 72 72 72 72 72 72 72 72 72 71 71 71 71 70 70 70 70 70 70 71 72 72 72 71 69 68 68 68 70 70 70 70 70 70 70 70 69 69 69 69 68
41 39 43 30 24 19 16 10 6 -0 -5 -6 -6 -4 4 3 2 7 9 11 14 15 14 23 34 52 57 55 56 51 56 60 61 61 62 64 66 69 70 71 70 67 67 66 66 67 69 71 72 72 72 71 71 71 72 72 71 72 72 72 72 72 72 72 72 71 71 71 71 71 71 70 70 70 70 71 71 72 72 70 70 69 69 70 70 70 70 70 70 70 69 69 69 69 68 68 68
38 35 35 37 28 27 14 7 3 -1 -4 -3 -14 1 -1 6 10 10 12 13 14 15 19 35 37 50 51 60 58 57 62 58 62 62 63 64 68 70 71 71 68 67 66 67 66 67 69 72 72 72 72 71 71 71 71 71 71 71 72 72 72 72 72 72 72 71 71 71 71 71 70 70 70 70 70 71 71 71 71 70 70 70 70 71 70 70 70 70 70 69 69 69 69 68 68 68 69
30 33 26 25 19 19 18 7 -2 -6 -2 -0 -6 -4 3 8 9 13 17 20 17 16 35 38 41 51 50 58 60 63 64 64 62 62 64 66 69 71 71 70 68 67 67 66 67 67 69 72 72 72 72 71 71 71 70 71 71 71 71 72 72 72 72 72 71 71 71 71 71 71 71 71 70 69 70 71 70 70 70 71 71 70 70 70 70 70 70 70 70 69 69 69 68 68 69 69 69
40 32 21 18 16 12 9 4 -1 -4 3 2 6 6 10 11 16 19 21 26 21 16 44 40 36 47 57 58 55 62 64 64 63 64 65 67 70 70 71 70 68 67 66 67 68 67 72 72 72 72 72 71 71 71 71 71 71 71 71 71 71 71 72 71 71 72 71 71 71 71 71 70 70 70 70 71 70 70 69 70 69 70 71 70 70 70 70 70 70 69 68 68 68 69 69 69 69
32 29 24 23 15 9 7 3 -2 7 -0 2 6 14 30 13 14 16 21 29 27 23 20 15 18 42 54 56 58 62 64 64 64 65 66 68 68 69 70 69 67 66 66 66 67 69 70 72 72 72 72 72 71 71 71 71 71 71 71 71 71 71 72 72 71 71 71 71 70 70 69 70 70 70 70 70 70 69 69 69 70 70 70 71 71 70 70 69 69 68 68 69 69 69 69 69 69
23 25 12 16 9 10 -2 -3 -2 -4 -1 5 2 8 12 11 12 21 29 31 27 24 20 14 27 40 55 59 59 62 65 65 65 65 66 67 69 70 69 69 67 66 66 66 68 67 69 73 72 72 72 72 72 72 72 71 71 71 71 71 71 71 72 72 72 72 71 71 70 70 69 70 70 70 69 70 70 69 69 69 70 70 70 70 70 69 69 68 69 68 68 69 69 69 68 68 69
20 16 24 13 8 1 1 -6 -6 -2 -3 2 4 12 12 10 15 24 32 42 31 22 20 24 41 45 51 59 62 65 66 65 64 64 66 67 68 67 67 68 67 67 66 69 68 67 69 70 73 72 72 72 72 72 72 72 72 71 71 71 71 72 72 72 72 71 71 71 71 70 70 71 70 70 70 70 70 70 70 69 69 70 70 70 69 69 68 69 69 69 69 69 69 69 69 70 69
23 13 11 8 8 3 -5 -6 -3 -4 -2 0 6 12 10 10 15 23 36 42 37 19 20 37 42 49 52 58 60 65 66 64 63 65 66 68 66 65 66 66 68 67 68 68 67 68 68 69 70 73 72 72 72 72 72 72 72 71 71 71 72 72 72 72 72 71 71 71 71 71 70 70 70 70 71 70 70 70 70 70 70 70 69 69 69 69 69 69 69 69 69 69 69 69 69 69 69
22 12 8 5 4 0 -4 -1 -7 1 -3 2 9 11 11 11 12 19 41 47 39 21 24 37 56 51 55 55 63 66 65 65 64 66 66 65 65 65 66 66 67 66 68 68 67 67 68 67 68 70 71 72 72 72 72 72 72 71 71 72 72 72 72 71 71 71 71 71 71 71 71 70 71 70 71 70 70 70 70 70 70 70 69 69 69 69 69 69 69 69 69 69 68 68 68 69 69
16 12 9 6 8 -1 -2 -2 1 -5 -3 8 10 11 11 10 11 23 41 45 36 30 52 43 55 53 57 61 62 62 64 66 64 66 65 65 66 66 67 66 66 68 68 68 67 68 68 67 67 68 71 71 73 72 72 72 72 72 71 72 72 72 72 71 71 71 71 71 71 71 71 71 71 71 71 70 70 70 70 70 70 70 69 70 69 69 69 69 68 68 68 69 69 68 68 69 69
15 16 15 11 5 1 -1 1 -5 -7 3 10 11 11 11 13 12 24 31 48 50 53 56 55 54 54 55 57 59 60 64 66 65 65 66 66 66 67 68 66 68 68 67 67 67 67 66 67 67 70 70 71 71 72 70 72 72 71 72 72 72 72 71 71 71 71 71 71 70 71 71 71 71 71 71 71 70 70 70 70 70 69 69 69 69 69 69 69 69 69 68 68 69 69 69 69 68
20 14 13 15 2 -2 1 -0 2 -4 5 8 10 11 10 11 12 26 35 51 54 58 55 53 60 54 56 52 61 61 64 66 66 67 67 66 67 68 66 66 66 66 67 67 67 67 67 67 69 69 70 70 71 70 71 73 72 72 72 72 72 71 71 71 71 71 70 70 70 71 71 71 71 71 71 70 70 70 70 68 69 69 69 69 69 68 68 68 69 68 68 68 68 68 69 69 69
21 16 15 9 4 -2 2 -0 -1 -5 7 9 11 11 10 10 13 21 29 54 50 54 55 60 56 58 58 56 60 63 65 67 68 67 67 66 66 65 64 64 65 65 67 66 67 67 67 68 70 69 69 70 70 70 71 72 72 71 71 72 71 71 71 71 71 71 70 70 70 70 70 70 70 70 70 68 70 69 69 69 69 69 69 69 69 68 67 67 68 68 68 68 67 68 69 69 69
19 16 12 7 1 -3 3 -1 4 9 4 11 12 11 12 10 13 11 12 45 50 52 55 59 60 62 61 61 63 64 65 67 68 66 66 65 65 63 62 63 63 64 65 65 66 66 67 69 71 70 69 70 70 70 69 70 71 69 69 69 70 72 71 70 71 70 70 70 70 70 70 70 68 69 69 69 69 70 69 68 69 68 69 68 68 67 67 67 67 67 66 66 67 68 69 68 68
16 13 11 5 1 7 7 8 8 7 11 13 12 12 12 12 13 11 13 22 33 49 54 57 57 60 61 61 61 64 66 67 67 66 65 65 63 63 62 62 63 63 63 64 65 66 67 68 71 70 70 69 69 69 70 70 68 67 67 67 69 70 70 70 69 70 69 69 70 68 72 72 70 68 69 68 68 68 69 69 69 69 68 67 67 67 67 68 68 67 66 65 65 65 66 65 66
15 16 11 3 12 11 12 8 11 14 15 13 13 11 11 12 12 11 12 18 24 39 49 54 56 59 60 59 62 65 66 66 67 66 64 64 63 63 62 63 62 63 63 64 64 66 68 69 70 71 70 69 69 69 69 69 65 66 66 69 70 71 71 69 68 69 67 69 69 72 74 71 71 72 69 69 68 69 69 69 68 67 67 67 67 66 68 68 67 66 64 64 64 63 63 65 63
16 14 7 7 13 7 12 12 15 15 16 15 13 13 11 12 11 11 14 15 25 35 44 50 54 59 59 59 61 64 66 65 66 66 65 64 63 63 62 63 62 63 64 63 65 65 67 70 70 70 70 70 69 68 68 66 65 64 68 70 70 71 70 70 68 68 68 70 70 72 71 70 70 67 70 69 70 66 65 65 65 64 64 64 67 63 62 64 63 59 60 62 60 60 60 64 64
24 15 7 16 16 7 14 16 17 16 16 16 15 12 11 11 11 9 8 9 14 27 46 49 52 59 60 60 60 64 65 65 64 65 65 64 63 63 63 63 64 64 64 62 64 64 66 68 69 68 69 68 68 68 68 67 65 67 68 69 69 70 70 70 69 70 70 70 70 69 71 70 69 68 68 68 67 66 63 63 64 65 63 62 64 62 62 63 63 60 59 59 59 60 61 63 63
15 15 14 20 16 13 16 16 15 16 15 15 14 13 13 11 10 10 10 8 13 22 39 44 50 56 60 61 62 63 64 64 64 64 64 63 63 62 62 63 63 62 63 62 64 64 64 67 68 69 68 68 69 68 67 66 66 69 69 68 69 68 69 68 68 70 69 69 70 70 69 69 67 67 67 67 65 65 64 64 64 64 64 64 65 62 64 62 60 59 60 60 60 60 60 61 62
12 7 19 19 17 16 14 15 16 16 18 18 16 15 12 10 9 9 8 9 9 24 34 35 47 55 60 61 63 63 64 63 64 65 63 63 63 63 63 64 63 64 63 63 64 64 66 66 68 69 68 68 67 66 67 66 70 70 70 69 69 69 69 68 68 69 68 68 69 69 70 68 67 67 67 65 65 65 64 64 64 62 63 64 64 64 63 62 61 62 61 60 58 58 58 59 60
14 9 14 18 19 17 17 16 17 19 18 18 15 12 10 10 9 9 8 7 23 36 45 43 50 57 60 61 62 64 64 64 64 64 64 63 64 64 64 64 64 64 63 64 64 64 66 67 69 68 68 68 69 70 67 67 69 70 69 68 69 69 69 69 68 68 67 69 67 68 68 68 67 67 66 65 64 64 64 64 63 62 63 63 65 65 65 64 63 62 61 60 60 58 58 59 59
14 13 16 19 16 16 16 18 18 16 15 14 12 11 10 9 10 9 7 18 40 47 51 50 54 57 60 61 62 63 65 65 65 64 64 63 64 64 64 64 64 64 63 65 65 66 68 69 67 67 68 66 67 67 69 68 68 69 69 68 68 68 69 69 69 67 68 67 68 68 68 69 68 66 66 64 63 64 64 65 65 64 63 63 65 64 65 65 62 61 61 61 57 58 57 58 60
20 16 15 16 17 19 19 15 14 14 13 12 12 11 10 9 9 5 36 51 49 52 53 55 55 57 58 60 62 64 65 64 64 64 64 64 64 64 65 66 65 64 65 66 66 67 69 67 66 68 68 68 67 67 69 68 68 68 67 68 68 68 68 68 68 67 67 67 67 68 68 69 68 67 65 64 64 64 65 66 66 65 63 64 65 65 66 65 64 63 64 61 61 59 59 59 59
19 18 17 16 15 15 14 14 13 11 9 11 11 9 10 9 9 7 22 47 48 52 54 55 56 57 59 61 60 64 64 65 65 64 63 63 64 65 64 65 66 65 65 68 69 69 68 66 64 65 67 69 68 67 67 66 67 67 67 68 68 68 69 67 66 67 67 67 69 69 69 69 68 67 66 66 66 66 66 66 66 66 64 64 65 65 65 65 64 63 64 64 65 63 62 62 63
14 16 11 8 10 10 10 10 10 13 10 11 11 9 8 7 5 9 25 42 48 49 53 55 55 57 60 60 61 64 63 64 64 63 64 63 62 64 64 65 65 64 65 66 66 67 65 64 65 65 67 68 67 67 67 66 67 67 67 68 67 68 68 67 66 67 68 68 69 69 69 69 69 68 68 67 64 65 66 67 65 66 65 64 64 65 65 66 65 64 64 64 64 65 64 65 61
18 16 12 11 9 7 9 12 10 10 10 10 10 4 0 1 3 4 20 38 46 48 49 52 54 56 59 59 60 63 64 63 61 61 62 62 63 63 65 65 65 65 66 67 65 64 65 64 65 66 67 68 67 67 67 65 66 67 67 67 67 67 66 66 66 67 68 67 68 68 68 68 68 68 67 67 65 66 67 67 66 65 65 66 65 65 64 64 64 64 62 63 63 63 64 64 63
11 12 13 10 8 5 10 8 9 8 8 8 9 8 1 4 4 14 36 42 45 43 45 47 50 55 56 57 59 62 63 63 62 62 64 64 64 63 65 66 65 66 67 66 64 64 65 65 66 67 67 67 67 67 66 66 67 66 66 66 67 67 66 66 65 67 67 67 67 66 68 68 68 68 68 68 66 66 66 66 66 64 66 66 65 65 64 65 64 63 61 63 63 63 63 62 61
12 10 7 6 8 5 9 9 9 7 8 8 6 8 -0 2 6 17 36 44 45 45 45 46 49 54 56 55 60 60 61 63 64 64 64 64 64 62 65 65 65 65 65 65 65 64 65 66 68 67 67 67 67 66 67 67 67 67 66 66 67 66 65 65 65 66 66 66 66 66 68 68 68 68 68 68 67 66 65 65 65 67 67 66 65 65 65 64 64 63 63 64 62 62 63 63 64
13 10 18 13 10 6 8 9 10 10 9 8 6 -0 -2 -1 5 12 32 38 42 44 45 48 49 52 57 55 60 60 61 62 62 63 64 65 64 64 64 66 65 66 65 64 64 64 65 66 66 66 66 66 66 66 65 66 67 67 67 67 66 66 65 64 64 66 66 66 66 65 67 68 68 68 68 68 68 66 64 66 66 67 67 66 65 65 64 63 64 63 64 63 63 61 63 63 64
16 11 11 14 11 9 4 9 9 9 9 7 9 5 4 5 9 8 22 33 37 38 40 44 48 51 55 56 59 59 59 60 61 61 63 65 65 65 65 64 65 65 65 65 65 64 65 66 66 66 66 66 65 65 65 66 67 67 67 66 67 65 65 65 65 65 66 66 66 65 66 67 68 68 68 67 68 66 66 66 67 68 67 67 66 65 64 64 64 64 63 64 63 63 62 62 63
16 19 17 12 11 10 7 7 9 8 9 9 10 10 7 5 5 7 9 24 33 36 36 40 44 48 54 53 59 58 57 59 60 61 63 65 66 65 65 65 65 65 65 65 66 66 66 67 67 66 66 66 65 65 65 66 68 67 67 67 66 66 66 66 66 65 65 67 66 67 66 67 67 68 68 68 68 66 66 67 68 68 68 67 67 65 65 66 66 66 65 64 65 64 62 64 63
13 15 13 13 15 10 9 8 11 11 10 7 7 8 5 5 5 6 13 14 28 32 36 38 43 46 53 53 57 58 58 59 60 62 63 63 63 64 65 65 65 66 65 65 66 66 66 66 66 66 65 65 65 65 64 64 65 65 64 64 66 64 65 65 66 64 66 65 66 67 66 67 66 67 67 68 68 67 66 67 68 68 67 66 66 65 64 64 65 65 65 63 64 63 63 64 64
13 12 12 10 8 8 12 13 12 12 11 9 8 8 6 7 7 9 11 19 23 25 29 34 37 45 49 51 54 59 59 60 61 60 61 63 64 65 65 65 65 65 64 65 65 66 66 65 65 64 64 64 63 63 63 63 63 64 64 63 63 65 64 66 65 65 65 64 66 65 66 66 67 67 67 68 68 67 67 67 67 66 65 64 65 65 64 64 65 65 64 64 63 63 63 64 64
15 13 13 10 10 9 12 14 13 13 19 8 11 10 10 9 9 9 11 20 17 17 21 28 34 42 46 51 53 57 59 59 60 61 62 64 63 66 65 64 64 63 63 63 64 65 66 65 64 64 64 64 63 63 62 62 63 62 64 63 65 65 63 63 64 65 66 66 67 67 66 66 67 67 67 68 68 67 67 66 67 66 65 64 64 64 64 64 65 64 64 63 64 62 63 63 63
21 16 13 12 9 10 14 13 12 12 13 12 9 10 11 11 9 8 12 16 20 20 20 21 27 37 38 46 53 56 58 59 60 60 62 62 65 66 65 64 63 64 64 63 64 65 64 65 65 65 64 64 63 63 63 62 64 66 65 64 63 62 63 65 63 64 66 65 67 67 67 68 66 66 65 64 65 64 64 64 64 66 66 64 64 63 63 64 66 65 64 63 62 62 62 64 64
21 19 16 12 9 12 9 17 12 13 15 12 11 10 12 14 14 14 14 13 17 13 12 15 23 34 40 45 52 56 57 57 58 60 61 62 64 65 65 63 62 62 62 63 63 64 64 65 65 65 65 64 64 64 63 65 66 67 66 65 65 64 64 66 67 67 66 66 66 67 67 67 67 64 62 62 63 64 65 64 66 66 65 66 64 63 64 64 66 65 64 64 63 61 60 61 65
23 21 15 12 11 12 12 11 14 20 16 21 13 15 10 11 8 8 13 12 11 11 20 26 31 36 44 47 52 55 56 59 59 58 60 61 62 63 65 63 62 61 62 62 64 63 64 65 65 65 65 64 64 65 65 66 66 67 66 65 66 66 66 65 65 65 65 66 65 66 67 67 65 64 63 63 62 64 65 67 66 66 65 66 65 63 63 63 64 64 64 64 63 61 60 62 63
17 23 19 15 14 12 9 14 14 13 12 20 16 8 10 13 10 9 7 16 17 14 22 21 23 27 36 47 52 55 57 59 59 58 58 59 61 63 63 64 61 62 62 63 64 63 64 65 65 66 65 65 64 65 66 66 65 64 65 63 63 63 63 64 63 64 65 65 64 67 66 65 65 65 64 64 63 63 64 65 65 65 67 66 64 64 62 61 64 63 64 64 63 64 62 61 60
16 16 20 16 9 11 11 11 16 9 6 19 24 14 7 13 15 16 14 14 13 27 34 26 26 23 20 33 48 53 56 58 59 59 58 59 61 62 64 63 62 61 62 64 65 65 65 65 66 66 65 65 65 65 65 66 64 65 65 62 61 61 61 62 62 63 64 63 65 66 64 66 63 64 64 63 63 63 64 64 64 63 62 62 63 63 62 61 60 61 62 62 61 62 63 61 62
12 20 12 10 11 12 15 12 12 9 16 22 19 13 11 8 9 18 17 18 15 22 34 38 31 34 31 29 41 52 53 57 58 59 58 59 60 63 64 63 63 61 62 63 64 65 65 66 66 66 65 65 65 65 65 65 65 65 65 64 61 62 61 61 63 64 64 64 64 63 63 64 63 63 63 62 63 63 63 63 63 63 62 61 61 61 61 61 61 61 64 64 63 62 63 60 60
14 16 12 12 11 14 12 12 14 15 19 11 14 14 14 11 12 18 19 16 15 16 37 43 44 44 44 45 43 48 52 55 57 56 59 59 60 61 64 65 64 62 63 63 64 65 66 65 66 66 66 65 65 65 65 65 65 64 64 61 62 62 62 62 62 63 63 64 64 63 62 61 62 63 62 63 63 63 63 63 63 63 63 62 61 60 61 61 63 64 64 64 64 63 63 61 61
16 16 15 13 13 13 13 13 11 18 19 12 13 18 12 7 10 11 17 13 13 27 42 46 47 48 49 49 52 51 50 52 55 58 58 59 60 62 64 65 63 64 64 64 64 65 66 66 65 66 65 65 65 65 65 65 65 64 64 63 62 61 61 61 62 62 62 62 62 63 62 61 60 60 61 61 61 61 62 63 62 62 63 62 61 61 62 63 64 64 65 65 64 64 63 62 61
17 14 11 13 12 17 17 17 16 20 14 13 13 19 13 7 11 9 10 34 40 41 43 47 48 49 50 52 51 50 49 52 55 57 58 59 63 64 64 63 63 64 64 64 65 65 65 65 65 65 65 64 65 65 65 65 65 65 65 63 63 62 62 61 61 61 61 61 61 61 61 61 61 60 62 62 62 60 62 62 62 62 63 63 61 62 63 62 64 65 65 65 64 64 62 62 61
16 13 11 12 17 19 20 21 19 14 11 12 13 18 15 10 12 10 28 40 41 43 45 47 48 47 48 50 50 50 53 56 57 56 56 62 61 61 62 62 62 63 64 64 64 65 65 64 65 65 65 65 65 65 65 65 66 65 65 64 63 63 63 61 61 61 61 60 60 60 59 60 61 62 62 61 62 62 62 62 62 62 61 63 62 62 62 64 65 64 64 64 63 63 63 62 62
14 14 14 13 13 20 12 14 14 11 10 19 16 13 16 13 14 16 34 40 43 46 45 47 47 47 50 48 50 50 53 54 55 56 56 60 60 60 60 61 62 62 62 63 64 64 64 64 64 64 64 64 64 64 65 65 65 66 65 64 63 63 62 62 61 61 60 59 59 59 59 58 59 59 59 60 62 62 61 62 62 60 60 62 61 60 62 62 64 64 64 64 63 62 62 62 61
14 13 16 13 8 12 12 8 11 8 11 20 19 19 11 13 14 38 41 45 45 47 48 48 47 49 49 49 52 52 51 51 54 55 56 60 60 60 60 61 60 60 61 63 63 63 63 63 65 64 64 64 64 64 65 64 66 66 66 64 63 62 62 62 60 59 60 59 59 59 59 58 58 59 59 60 60 60 60 60 61 61 61 62 62 61 60 61 64 64 63 63 63 62 62 63 62
11 12 10 14 13 12 12 6 7 10 6 22 18 18 14 9 31 39 41 45 45 45 45 51 52 53 54 52 53 53 55 53 52 57 57 58 59 60 61 60 60 61 62 63 62 62 63 64 64 64 64 64 63 64 63 64 64 65 63 62 62 62 61 59 59 60 61 60 59 59 59 58 57 58 57 59 59 60 60 61 60 61 61 62 61 60 60 61 61 60 62 63 62 63 63 63 62
12 11 10 13 17 16 11 19 14 15 10 16 20 16 16 24 38 39 42 44 44 49 50 50 51 50 52 54 56 56 56 57 56 57 57 57 59 60 58 60 61 61 62 63 63 63 64 63 63 63 63 63 63 63 64 64 64 64 64 64 64 63 62 60 59 61 61 61 60 59 60 59 58 57 59 60 60 60 59 60 60 60 60 60 60 59 59 58 61 62 63 64 63 61 64 63 63
16 11 13 12 15 15 17 24 32 24 15 11 18 20 15 18 33 40 42 43 46 48 50 50 50 52 53 53 54 54 56 56 57 57 57 58 58 59 60 60 61 61 62 62 63 64 63 64 62 63 62 61 61 60 61 62 63 63 64 65 65 65 63 62 61 62 61 61 60 60 59 59 59 59 59 60 60 59 59 60 59 59 60 59 59 59 58 58 60 63 63 64 64 63 64 62 64
15 14 10 14 15 18 20 12 17 13 10 15 20 14 11 15 18 38 42 42 46 47 48 50 50 51 51 53 54 54 54 55 55 55 57 57 57 57 59 60 61 62 62 62 62 62 63 65 63 60 60 61 62 62 61 61 61 61 62 63 64 64 62 60 61 61 61 60 60 60 60 59 59 59 59 59 59 59 59 58 59 59 59 59 59 58 57 58 60 59 61 62 62 63 63 63 63
13 14 15 15 17 14 17 17 13 13 12 10 14 16 13 10 24 32 40 42 47 48 48 49 49 50 51 51 53 54 54 55 55 55 56 56 57 57 58 60 60 62 63 63 63 63 63 61 61 61 62 61 61 60 60 61 61 61 61 62 63 63 62 60 60 60 61 60 59 60 59 59 60 60 57 58 58 58 58 57 58 58 58 58 58 58 58 59 58 57 59 58 61 61 60 61 62
14 16 14 13 21 27 16 17 16 16 12 14 18 16 12 24 40 41 41 42 47 47 48 49 49 50 51 51 52 52 53 54 55 56 56 56 56 57 58 60 60 61 62 62 61 61 61 61 60 60 61 60 61 61 61 60 61 60 61 61 63 62 61 60 60 61 60 59 58 58 58 60 60 58 58 57 57 57 57 56 55 57 57 57 56 56 58 58 58 58 57 57 59 59 59 59 58
14 15 15 15 23 22 20 26 16 17 15 12 12 12 17 38 41 41 42 44 46 48 48 49 49 50 50 51 51 52 53 54 54 54 55 57 57 58 58 60 60 61 61 62 60 59 60 59 60 60 60 59 60 61 61 62 62 61 61 61 62 62 62 61 60 60 60 59 58 58 59 59 58 59 58 57 56 56 55 56 55 55 54 55 55 56 58 58 57 57 56 55 55 55 54 54 55
16 14 15 12 16 17 12 14 14 16 15 16 14 15 31 37 42 43 43 46 49 47 49 50 50 49 51 52 52 51 52 53 54 55 56 56 58 58 59 58 60 60 60 60 60 58 59 59 60 59 60 60 60 60 60 62 62 61 61 61 62 62 62 62 61 60 59 58 59 59 59 58 59 59 58 55 55 56 55 54 52 53 54 53 52 52 56 57 55 56 56 55 54 53 53 53 55